Regional Weather Roundup
Issued by NWS

Home | Current Version | Previous Version | Text Only | Print | Product List | Glossary Off
Versions: 1 2 3 4 5 6 7 8 9 10 11 12 13 14 15 16 17 18 19 20 21 22 23 24 25 26 27 28 29 30 31 32 33 34 35 36 37 38 39 40 41 42 43 44 45 46 47 48 49 50

000
ASUS43 KLMK 021302
RWRKY
KENTUCKY REGIONAL WEATHER ROUNDUP
NATIONAL WEATHER SERVICE LOUISVILLE KY
800 AM EST MON MAR 02 2015

NOTE "FAIR" INDICATES FEW OR NO CLOUDS BELOW 12,000 FEET
WITH NO SIGNIFICANT WEATHER AND/OR OBSTRUCTIONS TO VISIBILITY.

KYZ001>023-026-027-061>063-070>075-021400-
WESTERN AND SOUTH CENTRAL KENTUCKY

CITY           SKY/WX    TMP DP  RH WIND       PRES   REMARKS
PADUCAH        PTCLDY    27  19  72 NE12      30.52R WCI  17
HENDERSON      PTCLDY    25  18  74 N7        30.55R WCI  17
OWENSBORO      PTCLDY    26  19  74 NE5       30.55R WCI  20
HOPKINSVILLE   CLEAR     27  22  81 NE12      30.50S WCI  17
BOWLING GREEN  CLEAR     29  22  75 N5        30.52R WCI  24
GLASGOW        NOT AVBL
$$

KYZ024-025-028>034-038-045-046-053-021400-
NORTH CENTRAL KENTUCKY

CITY           SKY/WX    TMP DP  RH WIND       PRES   REMARKS
LOUISVILLE/SDF MOCLDY    27  18  69 N8        30.53R WCI  19
LOUISVILLE/LOU PTCLDY    26  18  71 VRB5      30.52R WCI  20
FORT KNOX      CLEAR     24  20  82 N5        30.49R WCI  19
$$

KYZ035>037-039>044-047>052-055>060-089>105-021400-
NORTHEAST KENTUCKY

CITY           SKY/WX    TMP DP  RH WIND       PRES   REMARKS
LEXINGTON      CLEAR     25  19  78 N8        30.49R WCI  16
COVINGTON      CLOUDY    21  15  78 NW5       30.49R WCI  15
FRANKFORT      CLEAR     26  20  77 CALM      30.49R
$$

KYZ054-064>069-076>088-106>120-021400-
SOUTHEAST KENTUCKY

CITY           SKY/WX    TMP DP  RH WIND       PRES   REMARKS
JACKSON        CLOUDY    31  27  85 VRB5      30.44R WCI  26
LONDON         CLOUDY    32  29  88 N9        30.44R FOG     WCI  24
SOMERSET       CLOUDY    32  30  93 NE8       30.48R WCI  25
MIDDLESBORO    CLOUDY    35  32  90 N7        30.43R WCI  29
MONTICELLO     CLOUDY    33  32  96 N9        30.49R FOG     WCI  25
$$



USA.gov is the U.S. government's official web portal to all federal, state and local government web resources and services.